Location: Lahitte
(43.6596°N, 0.6805°E)
Time: 11:25:28
(UTC+00:00)

Cosmos 1486 Rocket - Pass Details

Date: 15 May 2026
Orbit: 754 x 779 km, 74.1° (Epoch: 7 June)

Event Time Altitude Azimuth Distance (km) Brightness Sun altitude
Rises 21:55:04 0° 335° (NNW) 3,247 8.8 -21.7°
Reaches altitude 10° 21:57:29 10° 330° (NNW) 2,320 7.7 -21.9°
Maximum altitude 22:02:35 53° 255° (WSW) 951 4.5 -22.3°
Enters shadow 22:04:10 39° 205° (SSW) 1,157 4.6 -22.5°
